Погода в Тихорецке

Погода в Тихорецке : погода сейчас, прогноз погоды и архив. Всё, что Вы хотите узнать о погоде в Тихорецке!

Хотите узнать прогноз погоды в Тихорецке? Тогда Вам сюда: Погода в Тихорецке

Поиск расширенной информации на нашем сайте:

Другие новости

Новости СМИ2

Главная страница сайта

Новости сайта

03.07.2017

Напоминаем, что на нашем специализированном сайте Метеоцентр.Азия вы можете получить высокодетализированные автоматические прогнозы погоды по пунктам России, СНГ и мира в авиационном формате (включающие направление и скорость ветра, видимость, явления погоды, количество и форму облачности, нижнюю и верхнюю границу облачности).


Погода в Тихорецке - сегодня

Время (UTC), дата Ветер
(°,м/с) 
Видим.   Явления Облачность Т
(°С)
Тd
(°С)
f(%) Тe
(°С)
Pmin
(гПа)
dP
(гПа)
Po
(мм)
O2
(г/м3)
Тmin Tmax R s Состояние
почвы
21 11.11.18 050 (СВ) 5-10{12}  10 км    10/10 600 м 
[St]
+1.5 -3.5 69 -1  1031  0.5  766  307           
00 12.11.18 060 (СВ) 4-10{12}  10 км    10/10 600 м 
[St]
+0.4 -4.1 72 -2  1031.4  0.4  766  309           
03 12.11.18 050 (СВ) 6-10  10 км    10/10 300 м 
[St]
-0.3 -3.6 78 -4  1031.7  0.3  766  310  -0.3         
06 12.11.18 050 (СВ) 6-11{13}  10 км    10/10 300 м 
[St]
-0.7 -4.2 77 -4  1032.4  0.7  767  310  -0.7         
09 12.11.18 060 (СВ) 4{13}  10 км    10/10 300 м 
[St]
-1.2 -4.6 78 -4  1032.6  0.2  767  311           
12 12.11.18 050 (СВ) 5{12}  10 км    10/10 300 м 
[St]
-1.6 -4.9 78 -5  1032.3  -0.3  767  311           
15 12.11.18 050 (СВ) 10 км  снежные зёрна  10/0 средняя 
[As op]
-2.4 -4.7 84 -6  1032.5  0.2  767  312    -0.3       
18 12.11.18 050 (СВ) 5-11{11}  10 км  {снег}  10/0 средняя 
[As op]
-3.7 -5.6 87 -7  1032.1  -0.4  767  314           
21 12.11.18 050 (СВ) 5{11}  10 км  слаб. снег  10/0 средняя 
[As op]
-4.1 -5.4 91 -8  1031.9  -0.2  766  314           
00 13.11.18 050 (СВ) 5-10{11}  10 км  {снег}  10/0 средняя 
[As op]
-4 -5.2 91 -8  1031.3  -0.7  766  314           
03 13.11.18 040 (СВ) 4000 м  снег  10/10 1000 м 
[Ns]
-3.9 -5 92 -7  1030.7  -0.7  765  313  -4.2       
06 13.11.18 040 (СВ) 1000 м  снег  10/10 50 м 
[Ns]
-3.8 -4.8 93 -7  1031.2  0.5  766  313           
12 13.11.18 040 (СВ) 10 км  слаб. ливневой снег  10/10 600 м кучево-дожд. 
[Cb cap]
+0.3 -1.5 88 -2  1030  765  308           
15 13.11.18 050 (СВ) 4{10}  10 км  слаб. ливневой снег  10/10 600 м кучево-дожд. 
[Cb cap]
-0.1 -0.8 95 -3  1030.4  0.3  765  309         
18 13.11.18 050 (СВ) 4-10{12}  10 км  {ливн. осадки}  10/10 600 м кучево-дожд. 
[Cb cap]
+0.1 -0.6 95 -2  1030.6  0.3  765  308           
21 13.11.18 060 (СВ) 3{11}  10 км    10/10 1000 м кучево-дожд. 
[Cb cap]
+0.2 -0.9 92 -2  1030.3  -0.3  765  308           
00 14.11.18 050 (СВ) 10 км    10/10 600 м 
[]
+0 -1 93 -2  1029.4  -0.9  765  308           
03 14.11.18 060 (СВ) 10 км    10/10 600 м кучево-дожд. 
[Cb cap]
-0.9 -2.2 91 -3  1029.3  -0.1  764  309  -0.9    11  19  равномерный
мокрый или
старый снег
100% 
06 14.11.18 050 (СВ) 10 км  слаб. ливневой дождь [диам. гололёда 0 мм]  10/10 600 м кучево-дожд. 
[Cb cap]
-1.9 -3.2 91 -5  1028.9  -0.4  764  310  -1.9         
09 14.11.18 060 (СВ) 3{10}  10 км    10/0 средняя 
[As op]
-0.1 -1.9 88 -2  1027.4  -1.5  763  308           
12 14.11.18 050 (СВ) 10 км    10/4 600 м средняя 
[St|As op]
-0.2 -1.6 90 -3  1026.6  -0.7  763  308           
18 14.11.18 050 (СВ) 10 км    10/0 
+0.8 -1.1 87 -2    -1.1             
21 14.11.18 050 (СВ) 10 км    10/10 300 м 
[St]
+1.4 -1.4 82 1023.4  -1.3  760  305           
00 15.11.18 070 (В) 10 км    10/0 средняя 
[Ac As]
+0.6 -2.2 81 -1  1022.1  -1.3  759  306           
03 15.11.18 050 (СВ) 10 км    10/10 300 м 
[St]
-0.3 -2.8 83 -3  1021.8  -0.4  759  306  -0.3      18  равномерный
мокрый или
старый снег
100% 
Время (UTC), дата Ветер
(°,м/с) 
Видим.   Явления Облачность Т
(°С)
Тd
(°С)
f(%) Тe
(°С)
Pmin
(гПа)
dP
(гПа)
Po
(мм)
O2
(г/м3)
Тmin Tmax R s Состояние
почвы

Для получения пояснительной информации подведите курсор к названию столбца.

ПОГОДА в Тихорецке - архив

Всё, что Вы хотите узнать о погоде в Тихорецке - удобно и подробно!

Выберите нужную дату (начиная с 1 января 2015* года) и нажмите кнопку "Найти".
Будут отображены архивные сводки погоды по пункту Тихорецк, начиная с указанной даты.


Отображать данные в формате CSV (для использования в таблицах Excel)


Внимание! Наш архив погоды предназначен исключительно для личного некоммерческого использования в познавательных целях. Если Вам необходимы официальные справки о состоянии погоды (для производственных, юридических, коммерческих и т.п. целей), обращайтесь в органы Росгидромета.

*Примечание: данная дата относится к архиву по метеостанциям СССР (Россия, СНГ, Балтия).
Архив по метеостанциям Зарубежной Европы и Азии (кроме Китая) хранится 10 дней, по другим регионам земного шара (Китай, Африка, Америка, Австралия, Океания) - 1 день.

Тихорецк - район местоположения метеостанции


Название, широта, долгота, высота метеостанции:
Тихорецк 45.9°ш. 40.1°д. 78 м над ур. моря [Российская Федерация]

Дополнительная информация

В oтличие oт бoльшинства пoгoдных сайтoв мы публикуем пoдрoбную метеoинфoрмацию в детальнoм прoфессиoнальнoм фoрмате.

Характеристики температуры и влажнoсти вoздуха измеряются на высoте 2 м в тени вдали oт зданий и деревьев.
Скoрoсть ветра измеряется на высoте 10 м (на урoвне рoста челoвека скoрoсть ветра ниже в 1.5-2 раза). Если метеoстанция нахoдится в гoрoде или в лесу, тo скoрoсть ветра занижена на 2-4 м/с пo сравнению с oткрытым местoм. Скoрoсть ветра над акватoриями крупных рек и oзёр, а также на вершинах хoлмoв на 2-5 м/с выше, чем в oбычных услoвиях.
Атмoсфернoе давление в разных тoчках местнoсти мoжет значительнo oтличаться oт давления на метеoстанции, в зависимoсти oт услoвий рельефа (при пoдъёме на 10 м давление пoнижается примернo на 1 мм рт.ст.).